Regional Weather Roundup
Issued by NWS

Home | Current Version | Previous Version | Text Only | Print | Product List | Glossary Off
Versions: 1 2 3 4 5 6 7 8 9 10 11 12 13 14 15 16 17 18 19 20 21 22 23 24 25 26 27 28 29 30 31 32 33 34 35 36 37 38 39 40 41 42 43 44 45 46 47 48 49 50

053
ASUS45 KBOU 071007
RWRCO

WEATHER ROUNDUP FOR COLORADO
NATIONAL WEATHER SERVICE DENVER/BOULDER CO
300 AM MST SUN FEB 07 2016

NOTE: "FAIR" INDICATES FEW OR NO CLOUDS BELOW 12000 FEET WITH NO
SIGNIFICANT WEATHER AND/OR OBSTRUCTIONS TO VISIBILITY.

COZ001>005-013-030-031-071100-
...NORTHWEST COLORADO...

CITY           SKY/WX    TMP DP  RH WIND       PRES   REMARKS
CRAIG          CLOUDY     4   2  91 CALM      30.39R
HAYDEN         CLOUDY    12   3  67 SW5       30.35R WCI   4
MEEKER         CLOUDY    13   9  84 NE3       30.38S
MOUNT WERNER   NOT AVBL
STEAMBOAT SPGS CLOUDY    13   9  84 CALM      30.35R
WALDEN         PTCLDY    23  12  63 W25       30.27R WCI   7
$$

COZ006>008-011-071100-
...WEST CENTRAL VALLEYS...

CITY           SKY/WX    TMP DP  RH WIND       PRES   REMARKS
GRAND JUNCTION CLOUDY    15  13  91 CALM      30.49S
MONTROSE       CLOUDY    13   7  77 SE5       30.47F WCI   5
EAGLE          CLOUDY     7   7 100 E6        30.42S WCI  -3
RIFLE          CLOUDY    14   8  77 SE3       30.45F
DELTA          CLOUDY    19  15  85 NE3       30.49S
NUCLA          CLOUDY    18  10  73 SE6       30.48S WCI   9
$$

COZ017>023-064>068-071100-
...SOUTHWEST COLORADO...

CITY           SKY/WX    TMP DP  RH WIND       PRES   REMARKS
DURANGO        CLOUDY     4   1  88 CALM      30.38F
CORTEZ         CLOUDY    12   8  84 E8        30.41F WCI   0
PAGOSA SPRINGS CLOUDY   N/A N/A N/A CALM      30.36F
TELLURIDE      CLOUDY    20  13  73 SE5       30.42F WCI  14
WOLF CREEK PAS CLOUDY    21   5  49 SW5       30.39S WCI  15
$$

COZ009-010-012-014-032>034-037-058>063-071100-
...CENTRAL COLORADO...

CITY           SKY/WX    TMP DP  RH WIND       PRES   REMARKS
ASPEN          CLOUDY    10   6  84 S5        30.35F WCI   2
BUENA VISTA    CLOUDY    33   9  36 W20G29    30.22F WCI  21
COPPER MTN     CLOUDY    19   0  42 NW14G28   30.28S WCI   6
BERTHOUD PASS  CLOUDY    10   0  61 NW47G58   30.16F WCI -16
COTTONWOOD PAS CLOUDY    32   7  34 W32G55    30.20F WCI  17
GUNNISON       CLOUDY   -11 -29  40 CALM      30.47F
KREMMLING      CLOUDY    -6  -9  84 CALM      30.36F
LEADVILLE      CLOUDY    20   6  55 N12       30.27F WCI   8
MONARCH PASS   CLOUDY    14   9  79 MISG      30.37F
SALIDA         NOT AVBL
SUNLIGHT       CLOUDY    19  14  79 SW3         N/A
WILKERSON PASS CLOUDY    21  -4  33 W22       30.19F WCI   5
$$

COZ069>075-071100-
...SAN LUIS VALLEY/SANGRE DE CRISTO MOUNTAINS...

CITY           SKY/WX    TMP DP  RH WIND       PRES   REMARKS
ALAMOSA        CLOUDY     2  -2  83 W3        30.32F
LA VETA PASS   CLOUDY    21   9  58 MISG      30.24S
SAGUACHE       CLOUDY    12   5  73 E6        30.32F WCI   3
$$

COZ035-036-038>040-071100-
...NORTHERN COLORADO FRONT RANGE...

CITY           SKY/WX    TMP DP  RH WIND       PRES   REMARKS
DENVER INTL AP CLOUDY    41  10  28 W25G33    30.12R
DMNS CITY PARK   N/A     44   6  21 N7G15     30.14R
AURORA         PTCLDY    38   9  29 NW13      30.14R
FRONT RANGE AP   N/A     34   9  35 W13       30.13S WCI  25
ERIE MUNI ARPT CLEAR     44   8  22 NW15G25   30.12S
BOULDER MUN AP CLEAR     43  10  26 NW9       30.11R
CENTENNIAL     CLOUDY    41   6  23 NW6       30.13R
BROOMFIELD     CLEAR     43  12  28 W37G45    30.14R
FORT COLLINS   CLEAR     39   9  28 NW8       30.12S
LONGMONT       CLEAR     48   5  17 SW9G21    30.13R
$$

COZ041-046-047-076>085-087-088-071100-
...PIKES PEAK/PALMER DIVIDE AND SOUTHERN FOOTHILLS...

CITY           SKY/WX    TMP DP  RH WIND       PRES   REMARKS
COLO. SPRINGS  CLOUDY    38   7  27 N14       30.14F
A. F. ACADEMY  CLOUDY    39   5  24 NW9       30.13S
SCHRIEVER AFB  PTSUNNY   41   8  25 NW14G22   30.13F
ELLICOTT       NOT AVBL
FALCON         CLOUDY    35   7  30 NW9       30.15R WCI  28
FORT CARSON    CLOUDY    44  10  25 S8        30.10F
LIMON          CLOUDY    21  13  71 N6        30.16R WCI  13
MONUMENT HILL  CLOUDY    28   3  34 W6        30.17R WCI  22
TRINIDAD       CLOUDY    32  16  51 W10       30.15R WCI  24
$$

COZ042>045-048>051-090-091-071100-
...NORTHEAST COLORADO...

CITY           SKY/WX    TMP DP  RH WIND       PRES   REMARKS
GREELEY ARPT   CLEAR     37  16  41 NW9       30.13S
AKRON          PTCLDY    28  20  71 N16       30.13R WCI  16
BURLINGTON     CLOUDY    30  22  72 W6        30.14S WCI  24
WRAY           CLEAR     33  21  63 N16       30.12S WCI  22
STERLING       CLEAR     27  21  80 N6        30.15R WCI  20
HOLYOKE        CLEAR     34  21  60 N17       30.12F WCI  23
FORT MORGAN    CLEAR     32  22  67 N23       30.13R WCI  19
$$

COZ086-089-092>099-071100-
...SOUTHEAST COLORADO...

CITY           SKY/WX    TMP DP  RH WIND       PRES   REMARKS
PUEBLO         CLOUDY    43  16  33 NW10      30.11S
LA JUNTA       CLOUDY    33  23  66 W6G17     30.14R WCI  28
LAMAR          CLOUDY    28  24  85 S5        30.14R WCI  23
SPRINGFIELD      N/A     35  20  54 NW13      30.09R WCI  26
$$




USA.gov is the U.S. government's official web portal to all federal, state and local government web resources and services.